Wind_Speed
21 20 19 19 18 16 15 13 11 10 10 10 10 12 12 10 4 1 1 2 5 8 10 10 10 11 11 12 12 12 11 10 8 8 9 9 10 11 11 13 13 13 13 13 14 14 14 14 14 15 15 14 15 15 15 15 15 14 14 14 14 15 15 15 15 15 15 14 14 14 14 14 13 13
22 21 19 19 19 17 15 13 11 10 8 9 10 11 13 13 9 5 2 2 4 6 8 9 9 9 8 8 8 7 7 6 6 6 8 9 10 11 12 12 11 11 11 12 12 12 12 13 13 13 13 13 13 13 13 14 14 14 14 14 14 15 15 16 16 17 17 16 16 16 15 15 14 14
23 22 20 19 18 18 16 13 12 11 9 8 8 9 11 12 12 10 5 2 3 6 7 8 8 9 8 8 7 7 7 7 6 7 8 10 11 11 12 11 11 11 12 12 12 12 12 12 12 11 11 11 11 12 12 13 13 13 13 13 14 14 15 16 16 17 17 18 18 17 17 16 14 14
24 23 22 20 19 18 17 16 14 13 11 10 9 9 10 10 11 12 9 5 7 10 9 8 7 8 9 9 9 9 9 9 8 8 9 9 10 10 11 10 11 12 12 12 12 13 13 13 13 12 12 12 12 12 12 12 13 13 13 14 14 15 15 16 16 17 18 18 19 19 19 18 16 15
26 25 23 22 20 18 18 18 16 14 13 13 11 10 11 11 11 12 11 10 10 11 10 9 9 8 8 9 9 9 9 8 8 9 9 9 10 10 10 10 11 11 12 13 13 13 13 14 14 14 14 14 14 13 13 13 13 13 14 14 15 16 17 18 18 18 18 18 19 19 19 19 18 17
28 27 25 24 22 20 19 19 18 16 15 15 15 14 14 14 14 14 14 14 12 11 11 10 11 10 10 10 10 9 9 9 9 9 10 10 10 11 11 12 12 12 13 13 12 12 14 15 16 16 15 14 14 14 14 15 15 16 16 17 18 19 20 20 20 20 19 19 18 19 19 19 19 18
29 28 27 26 24 22 21 21 20 19 18 17 17 17 16 16 16 16 16 16 15 13 11 11 11 11 11 11 11 10 10 9 10 11 12 11 11 12 13 14 14 13 13 14 13 13 14 14 15 16 16 15 15 15 15 16 17 19 20 21 21 22 21 21 21 21 21 20 20 20 20 20 20 20
29 29 29 28 26 24 23 22 22 21 20 19 17 18 18 17 17 17 17 18 17 14 12 11 11 11 11 11 10 10 11 11 11 13 13 13 13 13 14 15 14 13 13 13 14 14 14 14 14 14 15 15 16 17 17 19 19 20 21 21 22 22 21 21 20 20 20 20 20 20 19 19 19 19
31 31 30 30 28 26 24 23 23 23 22 21 19 18 18 18 18 17 18 19 18 16 15 14 13 12 12 12 11 11 13 13 13 14 15 15 14 15 16 15 13 12 12 12 13 14 14 13 13 13 13 14 16 18 19 20 21 21 21 20 19 19 20 20 21 21 21 21 20 19 19 18 18 18
33 32 32 30 29 28 27 25 24 23 23 22 21 20 19 18 18 18 19 19 18 18 18 17 16 15 14 14 13 13 13 15 16 17 17 16 15 17 18 16 13 11 11 12 13 14 14 13 13 13 14 16 18 19 19 19 19 19 18 16 15 15 16 17 18 19 20 21 22 21 21 20 20 20
34 34 33 31 30 30 28 26 24 25 24 24 23 22 20 19 19 19 19 19 19 19 19 18 18 18 16 15 15 14 14 15 15 13 15 20 21 20 18 17 15 13 12 14 15 16 16 15 14 14 16 19 20 19 18 17 17 16 15 14 14 14 15 15 16 16 17 18 19 20 21 21 21 21
35 34 34 33 31 30 28 25 24 25 26 26 25 24 22 22 21 21 20 19 19 19 18 18 18 18 16 15 14 14 14 14 12 8 14 23 26 22 19 18 17 16 15 16 17 17 18 17 15 15 18 21 20 18 17 17 16 15 15 15 16 16 15 15 15 15 15 15 15 16 16 17 17 17
35 35 34 33 31 30 28 25 24 24 26 29 29 26 25 24 23 22 21 19 19 18 17 18 18 16 15 16 14 13 13 13 13 11 13 19 22 21 21 20 18 16 17 17 18 18 17 16 16 17 20 21 19 17 17 17 17 17 17 17 16 15 15 14 14 15 15 15 14 14 14 13 13 13
35 35 35 33 30 28 26 26 25 24 26 30 30 27 25 24 23 23 21 20 19 18 17 18 17 14 15 16 14 13 13 14 14 13 11 14 18 18 18 19 17 15 15 16 18 19 17 16 18 20 21 20 17 17 18 18 18 18 18 17 16 15 16 16 16 17 17 17 17 16 16 16 15 15
36 36 34 30 27 26 27 28 27 25 25 27 28 27 24 22 21 22 21 21 20 19 18 18 15 13 14 16 13 13 15 15 14 13 11 13 14 14 13 14 15 15 13 14 17 19 19 19 21 23 22 20 18 18 19 18 17 17 17 17 17 18 19 20 21 21 22 22 22 21 21 21 20 20
36 34 29 26 26 27 28 29 27 23 22 24 27 28 24 21 20 20 19 19 19 18 17 16 15 13 14 15 14 14 14 14 12 12 12 12 12 13 12 11 14 15 15 15 17 19 20 22 23 24 23 21 19 18 19 18 18 18 19 20 22 24 25 25 24 23 23 23 23 23 22 22 22 23
35 32 28 27 29 29 27 27 25 22 21 23 26 27 24 21 19 17 16 16 16 15 14 14 14 13 12 13 13 12 11 12 12 12 12 12 11 12 12 13 16 17 15 16 17 19 22 22 22 23 23 21 19 18 19 20 20 21 23 24 24 23 21 20 19 18 18 19 19 20 21 21 22 23
34 32 31 31 29 26 25 27 25 20 19 23 25 25 24 21 18 16 15 15 15 13 12 13 13 11 11 11 12 11 11 12 12 11 11 10 9 11 12 13 16 16 16 17 15 15 19 19 19 22 22 20 19 20 22 22 22 23 23 21 18 15 14 14 14 14 15 15 16 17 18 19 20 21
33 32 33 32 30 26 25 27 25 19 19 23 26 25 24 21 18 17 16 15 13 12 11 11 10 9 9 10 11 11 11 11 10 10 10 9 10 11 13 14 16 16 16 16 12 11 15 17 18 21 22 21 21 22 22 23 22 20 18 15 13 13 14 15 15 15 14 15 15 15 16 17 18 19
32 32 31 31 30 28 26 27 25 21 20 23 25 24 23 21 19 17 15 13 11 9 8 7 7 7 8 9 9 8 7 7 7 7 9 10 11 12 13 14 16 16 14 13 11 11 15 18 18 20 21 22 23 24 22 20 17 15 14 14 14 15 15 15 16 16 16 15 16 17 17 17 17 18
31 31 31 30 28 26 25 26 24 21 21 23 25 24 24 21 18 16 13 11 8 6 5 5 6 7 6 5 5 4 5 6 8 9 11 12 12 12 10 10 11 12 12 14 13 12 15 18 18 20 21 22 23 23 20 17 15 14 15 15 15 16 17 17 17 18 18 18 18 18 18 18 18 18
30 29 29 27 26 25 24 23 22 21 22 24 25 25 24 21 18 15 12 9 6 5 5 5 5 4 4 4 5 6 8 9 10 11 12 12 11 10 8 7 9 12 14 14 11 10 15 17 17 18 20 21 22 21 18 17 16 15 15 15 16 17 18 19 20 20 20 20 20 20 20 19 19 19
28 27 26 24 24 23 22 21 21 20 22 25 26 25 23 21 18 14 11 8 6 5 5 4 4 5 5 6 8 9 10 10 9 9 9 8 8 7 7 8 8 8 10 12 10 10 14 16 16 16 14 12 16 19 18 18 19 18 17 18 17 18 19 20 21 20 20 20 21 21 21 20 20 21
26 25 23 22 22 20 20 21 20 19 22 25 25 24 23 20 16 13 10 8 6 5 5 5 5 5 6 8 9 8 7 5 4 4 4 5 5 5 7 9 9 8 10 13 12 12 14 14 16 17 14 9 11 18 21 22 21 19 19 19 19 19 19 19 19 19 19 21 21 21 21 20 20 21
26 24 22 22 21 19 20 23 20 17 21 24 23 22 19 15 12 11 9 8 7 5 5 4 4 4 5 5 4 2 2 2 3 3 4 4 6 7 9 10 12 14 15 14 12 12 15 16 17 19 17 12 12 17 23 25 23 20 19 19 20 19 18 18 18 19 20 22 22 22 21 21 21 22
26 24 23 23 20 20 23 23 19 18 21 22 21 18 15 12 10 10 9 8 7 6 6 5 4 4 4 3 3 3 3 3 4 4 5 6 7 9 10 11 13 16 16 14 13 14 16 17 17 17 15 14 13 16 19 21 23 21 19 18 18 18 19 20 21 21 21 21 22 22 22 23 23 24
25 24 23 21 20 21 23 22 19 20 22 21 19 16 13 12 10 10 9 8 8 7 7 7 7 7 6 5 5 4 4 5 5 6 7 8 9 10 12 13 13 15 15 14 13 14 14 15 15 15 16 15 14 13 14 16 21 23 21 19 19 19 20 21 21 21 20 21 22 23 24 26 26 27
23 22 21 19 19 22 23 21 21 22 21 20 17 14 13 12 11 11 10 9 9 9 10 10 10 9 7 6 5 5 5 6 6 8 9 9 10 12 14 14 14 13 14 13 13 12 13 14 15 15 15 15 14 13 12 16 21 24 24 22 22 22 22 20 20 21 21 22 24 25 26 28 29 30
19 19 17 17 20 23 23 22 21 21 20 18 16 14 13 13 12 12 11 10 11 12 12 13 12 10 8 6 6 6 6 7 8 10 10 10 11 12 14 14 13 12 12 12 12 11 12 15 15 14 14 14 14 16 16 18 21 24 24 23 24 24 22 20 20 22 23 24 25 26 27 28 29 30
17 16 17 19 23 24 23 22 21 20 19 17 15 14 14 14 13 12 12 12 13 14 14 14 13 10 9 8 7 7 8 9 10 10 10 11 12 13 13 13 12 12 11 11 11 12 13 14 15 14 14 15 15 17 19 19 21 24 26 25 24 22 20 21 22 23 24 25 25 25 27 28 30 31
21 20 20 23 24 24 23 22 21 19 18 17 16 16 15 14 13 12 12 13 14 15 14 13 12 11 10 9 8 8 9 9 8 8 9 11 12 12 12 13 13 12 11 11 11 12 13 13 14 14 15 16 16 18 20 19 21 25 26 25 23 21 21 23 23 23 25 25 23 22 23 26 30 32
26 25 26 26 26 25 25 23 20 19 18 17 17 16 15 14 13 13 13 14 15 15 14 14 13 12 11 11 10 9 9 8 6 6 8 10 11 11 11 12 12 12 13 13 12 11 11 12 13 14 16 17 17 19 20 20 21 23 24 23 23 22 23 23 23 25 27 24 21 20 21 25 31 35
31 30 30 29 28 27 25 23 21 20 19 17 16 16 15 15 15 15 16 17 16 15 14 14 13 13 13 12 11 10 9 7 5 7 8 9 10 10 11 11 12 13 14 15 14 12 11 11 13 14 15 16 18 19 19 19 20 21 22 23 23 23 24 23 22 24 25 22 20 22 23 25 33 38
34 33 31 30 29 27 25 24 23 21 19 18 17 17 17 16 16 17 18 18 16 15 14 14 14 14 14 13 11 9 8 6 6 7 8 9 9 10 10 11 12 13 14 15 14 12 12 14 15 16 16 17 18 18 17 17 19 21 21 22 23 23 23 23 21 21 21 20 20 23 23 26 32 37
36 34 31 27 26 26 25 25 24 21 20 19 19 19 18 18 18 18 18 17 15 15 15 15 15 15 14 13 11 9 8 7 7 8 8 8 9 9 9 11 14 15 14 14 13 12 13 16 17 17 17 17 17 17 16 15 16 19 22 23 23 21 20 22 22 21 20 21 23 23 23 25 29 32
36 35 32 27 26 26 25 24 23 21 20 20 20 20 20 19 19 18 16 14 14 15 16 16 16 16 14 12 10 9 8 8 8 8 8 8 8 8 9 12 14 14 14 13 12 13 14 16 17 15 12 11 9 10 13 16 16 16 20 23 23 21 21 22 23 21 21 22 24 23 22 24 28 29
33 32 31 29 27 26 25 23 22 21 20 19 20 21 20 18 16 14 12 11 13 14 16 16 15 14 12 11 10 9 8 9 8 7 7 7 7 8 11 14 14 14 13 12 12 12 14 16 16 12 8 7 5 5 11 17 18 16 18 21 22 23 22 22 22 22 22 22 24 25 25 27 29 30
32 31 29 29 28 27 25 23 21 20 20 20 20 20 18 15 12 9 9 10 11 13 13 14 13 12 11 11 10 9 9 9 8 7 7 7 7 9 12 14 14 13 13 13 12 13 14 16 16 13 8 6 4 4 9 15 18 20 21 20 22 23 20 18 20 23 23 23 26 27 27 28 31 32
32 32 31 29 28 26 23 21 21 21 20 20 19 18 16 12 9 8 8 8 9 9 11 12 11 11 11 10 10 10 10 9 8 7 6 6 8 10 13 14 13 13 13 13 13 14 15 16 17 16 14 10 10 11 13 15 19 22 23 21 21 21 19 18 19 21 22 24 26 28 28 29 31 32
31 31 30 28 27 24 22 21 21 21 20 19 18 16 13 10 9 8 8 8 8 8 9 10 11 11 10 10 10 10 10 8 7 6 6 7 9 11 13 13 13 13 13 14 14 14 15 16 17 18 18 16 15 15 15 16 18 22 24 22 22 22 21 20 19 19 21 23 25 27 29 30 32 32
30 29 28 26 24 22 21 22 22 21 20 18 16 14 12 10 9 9 9 8 8 9 10 11 11 10 10 10 11 10 9 7 6 7 7 8 10 12 13 13 13 13 12 13 14 15 15 16 17 17 18 17 14 12 11 10 11 17 23 25 25 24 23 22 21 21 22 24 24 25 28 30 31 32
30 28 26 23 21 20 21 22 22 21 20 18 16 14 13 12 11 10 10 10 10 10 10 10 10 9 10 11 11 11 9 8 7 8 9 10 11 12 13 13 13 13 13 13 14 15 15 16 16 16 17 16 13 9 7 8 10 16 23 26 27 27 27 26 23 22 24 24 22 22 25 26 25 24
28 26 24 22 21 21 22 22 23 22 20 18 17 16 15 15 14 13 13 12 12 12 11 10 10 10 11 12 12 11 10 10 10 10 11 12 12 13 14 14 13 13 13 13 14 15 15 15 15 16 17 16 12 8 8 11 13 16 18 22 26 29 30 30 28 26 26 26 23 21 23 23 21 20
27 25 24 23 22 22 22 23 24 22 20 19 18 17 17 17 16 15 14 13 12 12 12 12 11 11 12 13 13 13 13 13 13 12 12 12 13 13 14 14 12 12 12 13 14 15 14 14 15 16 17 17 14 11 11 12 13 15 17 21 24 26 28 30 31 30 30 31 29 26 25 25 24 24
26 24 24 24 23 23 24 25 24 22 20 19 19 19 18 18 16 15 14 14 13 14 13 13 13 13 13 14 16 16 16 16 15 14 13 13 13 14 13 13 12 12 12 12 14 15 14 14 14 15 17 18 15 12 12 14 14 16 18 20 20 21 23 25 26 25 26 30 33 31 27 27 27 27
Wind_Direction
247 250 250 246 243 240 239 243 249 252 256 257 249 238 229 220 208 187 263 257 251 256 262 263 265 267 264 263 265 269 276 275 263 255 257 264 270 274 281 286 289 290 292 294 296 295 293 292 292 291 292 294 298 300 302 302 301 300 299 299 299 298 299 299 299 297 294 292 291 292 292 293 293 294
247 250 250 246 243 240 239 240 240 243 252 252 248 247 242 236 230 222 229 257 255 262 274 274 269 264 258 254 255 261 269 270 261 256 259 267 275 281 284 286 289 294 299 302 303 302 300 297 294 291 289 290 295 299 302 303 301 299 297 296 295 295 296 296 296 296 295 294 293 292 291 291 291 291
245 248 247 245 242 241 241 239 237 242 250 251 248 247 242 240 243 241 234 245 271 275 289 290 273 257 251 249 255 265 269 272 273 271 271 275 280 283 285 287 292 297 301 303 305 306 307 305 302 298 295 294 297 301 303 304 303 299 296 293 292 293 293 293 293 293 293 293 293 293 292 291 291 291
244 245 245 245 244 243 241 239 237 240 243 244 243 243 241 238 241 241 232 231 264 275 282 285 267 249 249 254 262 268 269 271 272 270 271 275 280 283 285 289 294 299 302 302 302 304 305 306 306 304 302 300 299 299 300 301 300 297 294 291 289 289 289 289 290 289 289 289 289 290 291 291 290 289
243 244 244 245 245 244 242 240 239 237 236 236 235 237 238 235 233 234 232 235 254 269 272 270 258 245 249 258 261 268 272 270 265 263 266 273 281 286 290 293 296 301 305 303 301 302 304 307 308 306 303 301 299 299 300 299 298 295 292 290 289 288 288 287 287 286 285 284 283 283 284 285 286 286
243 242 243 244 245 244 244 242 240 237 234 233 234 235 233 232 232 233 234 235 239 247 257 263 257 248 252 258 261 271 280 277 268 265 269 278 285 290 292 292 292 297 303 302 303 307 309 308 308 309 307 304 300 298 297 296 296 295 295 293 292 290 289 288 287 285 284 281 279 277 276 277 278 279
242 241 241 243 242 242 244 244 243 239 236 236 237 234 230 230 233 234 235 236 235 240 250 256 253 250 252 258 265 277 282 281 278 276 281 287 289 293 295 292 288 290 294 296 299 306 310 308 306 307 308 307 304 300 297 295 294 294 294 293 292 291 290 288 285 285 284 283 282 278 275 274 272 273
242 240 241 242 241 240 241 244 244 241 238 238 236 233 231 233 234 233 236 239 240 244 249 250 251 253 255 260 267 278 283 285 285 286 290 291 291 296 300 295 288 284 286 288 292 300 306 307 305 304 304 304 305 305 304 301 297 293 291 289 288 288 288 287 284 283 283 284 284 283 280 277 273 270
243 243 243 243 240 238 239 241 242 242 241 241 238 236 237 237 236 236 239 242 244 245 248 253 259 262 263 265 269 277 284 290 291 291 291 290 294 304 309 303 289 281 281 282 287 293 297 300 301 300 301 303 307 308 303 299 295 293 293 293 291 290 288 286 283 281 280 280 281 282 281 280 277 273
244 245 245 244 239 237 238 239 242 242 242 242 240 238 238 238 238 240 242 242 244 247 251 257 263 267 268 269 272 277 282 288 290 291 292 295 303 312 313 306 293 282 280 282 287 292 293 297 299 298 301 306 311 311 302 294 291 291 293 294 293 292 290 288 286 283 281 279 278 277 277 276 276 275
245 246 246 244 240 238 236 238 245 247 245 244 242 239 238 238 240 242 243 242 243 247 251 255 261 266 267 269 274 279 284 286 285 295 312 310 308 310 307 299 292 286 284 285 288 292 295 302 303 301 305 310 311 307 298 292 291 289 289 288 288 291 292 293 294 293 290 287 283 280 277 275 274 273
245 246 246 244 242 240 236 236 244 250 250 245 240 238 238 239 242 243 241 241 242 245 249 253 259 263 265 270 277 281 286 283 277 298 313 301 297 302 302 295 291 290 289 289 289 292 298 303 305 305 307 310 308 301 293 292 293 292 289 289 291 293 295 296 299 301 301 299 294 289 285 281 278 275
244 246 246 244 242 241 236 233 239 250 255 249 241 238 237 238 241 241 239 239 240 242 246 251 256 259 264 273 280 282 287 286 285 299 298 284 287 298 300 294 290 289 292 291 290 294 299 301 304 307 307 305 302 297 295 296 297 297 295 294 294 297 300 301 303 305 306 304 301 297 293 289 285 281
243 245 245 244 243 240 235 235 239 245 252 250 245 243 240 238 237 234 233 236 238 239 242 247 252 254 264 275 279 281 290 295 297 301 291 278 286 296 297 295 293 293 296 295 294 299 303 301 302 304 302 299 297 298 300 300 299 299 298 297 299 303 305 305 304 305 305 303 300 296 294 293 290 287
241 244 244 242 242 239 236 239 242 242 247 249 246 245 242 240 238 233 231 234 235 235 239 246 251 251 262 275 279 282 291 296 296 294 287 282 286 289 290 293 295 298 303 301 298 300 302 302 303 302 299 298 299 302 303 303 304 303 302 301 303 303 303 301 299 298 297 297 297 296 295 293 291 289
239 241 240 238 243 244 240 239 240 241 248 249 246 245 241 238 238 238 239 240 237 238 243 248 251 252 260 273 280 283 288 288 286 286 286 286 286 285 285 284 289 298 304 301 296 294 296 300 300 298 298 299 302 303 304 306 307 306 304 303 301 300 298 297 296 293 292 293 293 293 293 292 290 288
236 236 234 236 243 244 239 236 236 241 248 246 242 241 237 234 237 237 238 241 242 246 249 248 252 258 263 272 280 283 281 278 280 283 284 286 287 286 284 282 289 298 299 296 292 290 295 299 298 295 298 302 304 304 304 307 307 305 304 302 300 300 299 299 299 297 295 293 292 291 290 289 287 286
234 232 232 236 240 242 239 235 232 238 244 240 236 234 231 230 229 225 226 232 238 245 248 251 260 266 267 271 279 280 274 272 277 279 280 284 286 284 283 284 290 295 294 294 291 287 295 302 298 295 301 305 304 303 304 306 307 306 306 305 304 306 307 306 306 302 299 296 294 292 290 288 286 284
234 232 232 235 237 242 243 235 229 233 239 235 232 230 226 222 217 217 223 228 234 243 249 254 261 264 268 275 280 279 274 271 273 273 274 280 283 285 286 286 288 291 293 295 288 277 295 305 297 294 303 307 304 304 306 307 309 309 310 312 312 312 312 311 310 308 305 303 301 300 299 296 293 289
235 234 233 231 232 236 238 232 228 234 236 230 228 223 215 211 210 214 221 226 233 240 241 246 259 269 278 283 279 275 272 270 275 275 272 276 280 281 282 282 287 293 299 302 295 278 290 304 298 294 304 307 304 306 310 313 316 316 316 317 315 313 313 313 313 312 310 310 311 311 311 308 303 297
233 234 235 232 228 229 231 228 227 232 232 226 221 213 204 202 206 209 215 222 227 231 237 255 274 279 276 267 259 262 266 273 282 277 273 279 279 274 272 276 287 297 303 309 306 285 286 301 301 297 304 307 306 310 317 321 324 321 319 318 314 311 312 311 311 311 310 313 315 315 315 314 310 307
233 233 234 232 227 226 228 227 224 225 225 219 213 205 199 198 200 202 206 210 210 220 244 261 264 253 246 243 252 270 276 278 279 274 275 282 281 272 268 272 289 299 302 308 309 285 285 299 302 300 305 307 306 310 318 324 326 325 323 321 313 308 308 308 308 308 309 313 315 315 315 315 314 313
230 230 229 228 227 227 225 220 218 220 218 214 210 205 199 197 197 199 201 204 208 219 229 232 226 225 239 256 268 278 281 279 277 274 274 276 273 271 274 281 289 293 299 310 311 290 288 298 301 303 306 305 306 312 316 319 324 326 324 320 312 308 305 304 304 306 309 313 314 313 314 315 317 317
221 222 223 222 223 225 218 212 216 220 216 212 208 205 202 199 197 197 199 202 209 218 216 212 221 235 255 271 278 282 280 272 264 257 248 250 263 277 285 287 281 270 286 308 312 296 291 296 301 305 304 291 294 306 310 314 320 324 323 317 312 310 309 306 305 307 309 311 311 312 313 314 316 316
214 214 214 214 215 213 209 212 220 220 210 207 206 204 204 203 197 195 198 201 204 212 212 209 223 246 261 270 271 260 219 197 202 212 227 259 279 285 287 286 279 277 291 310 314 299 294 298 301 304 301 287 281 294 304 311 317 322 321 316 314 316 317 314 312 311 310 309 309 311 314 314 314 312
212 213 212 211 207 202 205 214 218 206 198 200 203 201 198 197 197 195 197 203 206 203 198 198 207 213 209 199 180 169 179 197 219 239 256 274 282 285 288 287 280 282 295 309 310 302 298 299 301 300 295 289 288 292 297 305 315 322 321 318 319 321 320 317 316 315 313 311 311 313 315 314 312 310
209 211 212 209 203 201 206 208 200 190 191 194 196 194 193 194 197 196 198 203 203 194 190 192 192 185 176 171 173 186 208 228 248 264 274 282 284 286 292 292 286 286 296 304 304 302 299 298 302 301 294 290 291 292 290 296 309 317 319 320 323 322 319 318 317 316 316 315 315 316 316 315 314 313
208 208 210 207 201 198 197 193 188 187 189 191 191 192 194 195 196 198 200 197 189 187 190 190 186 183 181 183 192 210 231 251 269 284 291 291 287 290 295 295 291 290 297 300 300 301 301 302 308 310 303 294 287 283 286 293 302 310 316 319 320 320 321 321 319 317 318 318 317 317 315 314 315 315
205 206 205 200 193 189 187 186 186 185 185 187 190 192 194 197 199 199 195 189 187 191 192 190 187 186 191 203 220 238 256 272 285 295 298 293 291 294 296 294 291 292 297 299 300 303 304 306 312 316 312 304 291 284 289 293 297 306 312 310 310 316 323 324 321 319 318 317 316 315 312 310 312 312
191 193 193 187 182 182 182 182 180 179 180 186 190 193 196 199 200 196 192 191 195 194 191 191 191 193 202 220 235 250 269 283 292 296 295 295 298 300 297 295 295 296 295 296 300 301 301 307 316 319 318 316 305 299 301 298 295 304 311 307 303 310 320 324 322 320 317 315 313 310 309 310 312 310
174 176 177 176 174 174 174 175 176 179 184 188 191 194 198 199 196 195 197 201 202 197 193 194 198 203 217 232 244 259 276 288 293 291 290 295 300 301 300 301 303 302 298 297 299 299 300 308 318 322 322 321 315 313 315 308 298 301 308 310 306 305 311 317 317 317 318 316 310 304 303 307 312 312
164 166 167 166 167 168 168 171 177 183 187 190 194 195 196 195 193 195 200 204 204 201 199 203 209 217 229 242 253 267 278 283 285 286 289 293 296 298 301 302 303 304 304 304 304 303 302 308 316 321 322 320 319 321 320 310 304 303 305 309 310 306 308 312 311 312 318 316 306 301 299 300 308 312
157 159 160 160 162 165 168 172 178 183 186 190 194 194 193 194 196 200 204 206 206 206 208 214 222 230 239 249 258 266 270 271 277 287 291 292 292 295 296 295 297 302 305 308 312 315 315 316 316 316 317 317 322 325 317 304 303 307 307 308 309 307 309 313 309 309 315 313 305 304 301 299 306 310
155 156 156 158 161 165 170 175 178 183 188 190 191 192 194 199 203 205 207 209 211 213 218 226 234 240 246 254 258 255 253 260 276 286 288 289 291 292 290 290 296 302 304 308 315 323 326 326 323 319 320 321 322 324 318 302 300 309 312 311 310 308 311 314 310 307 310 309 305 305 301 298 302 306
153 155 156 159 164 169 173 177 181 184 189 192 193 194 197 203 209 210 212 214 217 223 229 234 239 245 249 253 249 240 241 257 275 279 280 284 286 283 283 291 298 302 305 308 318 328 332 332 330 328 329 329 326 326 331 327 316 314 316 316 316 313 311 313 313 309 307 308 308 306 300 297 299 302
154 159 160 161 166 170 173 178 183 187 192 196 197 198 201 207 212 216 219 223 229 235 239 241 244 247 249 245 234 228 240 260 269 272 275 277 275 275 286 295 298 299 304 309 319 330 333 333 334 333 329 328 325 320 329 338 340 329 319 318 321 320 315 315 316 311 305 306 307 303 297 295 295 297
155 162 164 164 168 172 174 179 185 192 198 200 200 202 207 211 214 218 225 233 239 242 244 247 248 245 239 226 218 227 248 260 262 265 268 267 268 278 292 297 295 297 305 310 318 330 332 331 333 333 325 320 319 301 312 328 342 347 335 321 318 320 320 318 316 313 308 305 303 301 299 297 296 296
157 163 166 168 171 173 176 182 190 196 200 201 201 205 210 214 217 224 232 239 243 243 241 240 237 226 214 209 219 239 250 250 252 260 262 261 272 286 294 295 294 299 306 309 317 328 332 331 332 334 328 312 298 296 307 314 326 342 347 333 320 320 323 320 316 314 310 305 305 306 304 299 297 298
165 168 170 171 172 174 179 186 195 199 199 199 201 204 208 211 214 220 229 237 241 235 226 220 212 202 202 215 233 245 245 242 251 260 256 259 277 289 290 290 294 301 306 310 318 327 331 333 335 333 326 308 292 296 300 296 305 329 346 346 333 327 325 321 317 314 310 307 309 310 307 303 302 303
170 172 174 174 174 178 185 192 198 199 197 196 199 201 202 201 201 206 215 221 220 210 201 197 196 197 210 230 242 245 244 247 252 252 249 261 278 284 284 286 293 302 306 310 318 326 330 333 335 332 326 317 309 308 304 297 303 322 337 343 342 336 330 325 321 313 309 311 314 314 312 312 313 313
170 172 176 178 179 184 192 196 197 196 193 194 196 194 190 190 194 200 205 205 202 196 189 191 199 210 228 245 251 250 249 247 240 238 246 264 275 278 278 283 292 300 303 306 314 322 328 330 331 330 327 323 322 321 314 304 306 318 326 335 342 342 338 335 330 322 318 318 318 317 316 317 317 316
174 175 179 183 187 191 196 196 194 191 190 191 190 185 184 188 192 194 193 190 190 192 193 199 212 228 244 252 253 250 242 233 229 236 248 262 269 272 275 280 288 296 301 304 312 320 326 328 329 329 328 327 328 326 314 303 306 314 321 329 337 340 342 343 340 336 333 330 323 316 316 318 318 317
179 181 184 188 192 196 197 195 191 189 188 187 186 185 187 190 190 189 189 188 190 195 203 213 226 239 247 248 246 242 235 228 229 238 248 258 265 270 275 280 285 293 301 307 316 322 326 329 331 332 331 331 330 322 306 305 309 311 316 325 331 335 340 343 343 343 345 344 338 327 320 316 312 308
185 187 189 191 194 196 195 191 188 187 187 186 187 189 192 193 193 192 192 194 198 204 213 223 231 238 242 242 240 238 234 230 233 240 247 254 263 270 276 281 286 293 303 313 321 324 327 331 333 335 334 333 330 321 308 307 311 312 317 324 327 329 335 340 342 343 346 350 350 343 332 325 318 310
190 192 193 195 196 194 191 188 187 187 188 188 191 194 195 196 196 195 195 199 205 210 217 224 229 234 240 241 241 241 237 233 233 238 245 253 263 270 274 278 286 295 306 317 324 327 329 332 334 336 334 332 331 325 316 314 315 316 320 324 325 326 329 333 335 334 334 341 348 347 339 334 330 321
Height
842 843 844 845 847 848 849 850 850 851 851 852 853 853 854 855 857 858 859 857 856 856 856 857 857 857 857 858 858 858 857 857 857 857 857 857 858 858 858 858 858 858 858 857 857 856 856 855 855 854 854 853 853 853 852 852 852 852 851 851 851 850 850 849 849 849 848 848 848 848 847 847 847 847
841 841 842 844 845 846 847 848 849 849 850 851 851 852 853 854 855 856 857 857 855 855 856 856 856 856 856 857 857 856 856 855 855 855 855 856 856 856 857 857 856 856 856 855 855 854 854 853 853 852 852 851 851 851 850 850 850 849 849 849 848 848 848 847 847 846 846 846 845 845 845 845 845 844
838 839 840 842 843 844 846 847 848 848 849 850 850 851 852 853 853 854 856 856 855 855 855 855 855 855 855 856 855 855 855 854 854 854 854 854 855 855 855 855 855 855 854 854 853 852 852 851 851 850 850 850 849 849 848 848 847 847 847 846 846 846 845 845 845 844 844 843 843 843 842 842 842 842
836 837 838 839 841 842 843 844 846 846 847 848 849 849 850 851 852 853 854 855 854 854 854 854 854 854 854 854 854 854 854 854 853 853 853 853 853 853 853 853 853 853 852 852 852 851 850 850 849 848 848 848 847 847 846 846 845 845 844 844 843 843 843 843 842 842 841 841 840 840 840 839 839 839
833 835 836 837 838 840 841 842 843 844 845 846 846 847 848 849 850 851 852 852 852 852 852 853 853 853 853 853 853 853 853 853 853 852 852 852 852 852 852 852 851 851 851 850 850 849 849 848 847 847 846 845 845 844 844 844 843 843 842 842 841 841 840 840 840 839 839 839 838 838 837 837 837 836
831 832 833 834 836 838 838 839 841 842 842 843 844 845 846 847 847 848 849 849 849 849 850 851 851 852 852 852 852 852 852 852 851 851 851 851 851 850 850 850 849 849 849 849 848 848 847 846 845 845 844 843 843 842 842 841 841 840 840 839 839 838 838 837 837 837 836 836 836 835 835 835 834 834
828 829 831 832 834 835 836 837 838 839 840 841 842 842 843 844 845 845 846 846 847 847 848 849 849 850 850 850 850 850 850 850 850 850 850 850 849 849 848 848 847 847 847 847 846 846 845 845 844 843 842 841 841 840 839 839 838 837 837 836 835 835 834 834 834 833 833 833 833 833 832 832 832 831
825 827 828 829 831 833 834 835 836 837 838 839 839 840 841 842 843 843 844 845 846 846 846 847 847 848 848 848 848 848 848 848 848 848 848 848 848 847 847 846 845 845 845 845 844 844 843 843 842 841 841 840 839 838 837 836 835 835 834 833 832 831 831 831 830 830 830 830 829 829 829 829 829 829
823 824 825 826 829 830 831 832 833 835 836 837 838 839 840 840 841 841 842 843 844 844 844 845 845 846 846 846 846 847 847 847 847 847 846 846 846 845 845 844 843 843 843 842 842 842 841 840 840 839 839 838 837 837 835 834 833 831 830 829 829 828 828 827 827 827 827 826 826 826 826 825 825 825
819 820 822 824 825 827 828 830 832 833 834 835 836 837 838 839 839 840 840 841 842 842 842 843 843 843 844 844 844 845 846 846 845 845 845 844 845 844 843 842 841 841 841 840 840 839 838 838 837 837 836 836 835 834 833 832 830 829 828 827 826 825 824 824 824 823 823 823 823 823 822 822 822 821
816 817 819 820 822 824 826 829 832 832 833 833 834 835 836 837 837 838 838 838 839 840 840 841 841 841 842 842 842 843 844 844 844 844 844 843 843 843 842 841 840 839 839 838 837 837 836 836 835 834 834 833 832 831 830 829 828 827 826 825 824 823 822 822 821 821 820 820 819 819 819 819 819 818
813 814 815 816 818 821 824 827 829 830 831 831 832 833 834 834 835 835 836 837 837 838 838 839 839 839 840 840 841 841 842 842 842 843 845 843 841 841 840 839 838 838 837 837 836 835 834 834 833 832 832 831 830 829 828 827 826 825 824 823 822 821 820 820 819 819 818 817 817 817 816 816 816 815
809 810 811 813 815 818 821 823 824 826 827 828 828 829 830 831 832 833 834 835 836 836 837 837 837 838 838 838 839 839 840 840 840 841 842 841 839 839 838 837 837 836 836 835 834 833 833 832 831 830 830 829 828 827 826 825 825 823 822 821 820 819 818 817 817 816 816 815 814 814 814 813 813 812
805 806 808 810 812 815 817 818 819 821 823 824 826 826 827 829 830 831 832 833 834 835 835 835 836 836 836 836 837 838 838 839 839 839 839 839 838 838 836 834 834 834 834 833 832 831 831 830 829 829 828 827 827 826 825 824 823 821 820 819 818 817 816 815 814 813 813 812 812 811 811 810 810 809
800 802 805 808 811 813 814 814 815 818 820 821 823 825 825 827 827 828 830 831 832 833 833 833 834 834 834 834 835 836 836 837 837 837 837 837 836 836 835 833 832 832 833 832 831 830 829 828 827 826 825 825 824 823 822 821 820 819 818 816 815 814 813 812 811 810 810 809 809 808 808 807 807 806
797 800 804 807 810 811 811 810 813 815 817 818 821 823 823 825 825 826 828 829 830 831 831 832 832 833 833 833 834 834 835 835 835 835 835 835 834 834 834 833 832 831 832 831 829 828 827 827 825 823 823 822 821 820 819 818 817 816 815 814 813 811 810 809 808 807 807 806 806 805 805 804 804 803
794 798 801 802 804 806 808 809 811 813 814 815 817 820 821 823 824 825 826 827 828 829 830 830 831 831 832 832 832 833 833 833 833 833 832 832 832 832 832 831 831 830 830 829 828 826 825 825 823 821 820 820 819 818 816 815 814 813 812 811 809 808 807 806 805 805 804 804 803 802 802 801 801 800
791 794 796 796 800 804 806 806 808 810 811 813 815 817 819 820 821 823 824 825 826 827 828 828 829 829 830 830 830 831 831 831 831 831 831 830 830 830 830 830 829 829 829 828 827 825 824 823 821 819 818 818 816 815 814 813 812 810 809 808 806 805 805 804 803 802 802 801 800 799 799 798 797 797
787 789 791 793 796 801 802 803 805 807 808 810 812 814 816 818 819 820 822 823 824 825 826 827 827 828 828 828 828 829 829 829 829 829 829 829 829 829 828 828 828 827 827 827 826 823 822 822 820 817 816 816 814 813 812 811 809 808 806 805 804 803 802 801 801 800 799 798 798 797 796 795 794 793
782 784 786 788 791 795 797 799 801 803 805 807 809 811 813 815 817 818 820 821 822 824 824 825 825 826 826 826 826 827 827 828 828 828 828 828 828 827 827 827 826 826 826 825 824 822 821 820 818 816 815 814 812 810 810 808 807 806 804 803 802 801 800 799 798 797 796 795 794 793 792 791 790 789
778 780 782 784 787 789 792 794 797 800 802 804 806 808 810 812 814 816 818 819 821 822 822 823 824 824 824 825 825 826 826 826 827 827 826 826 826 826 826 825 825 825 824 823 823 822 819 818 817 815 813 812 810 808 807 806 805 804 803 802 800 799 798 796 795 794 793 792 791 790 789 788 787 786
775 776 778 781 783 786 788 791 794 797 799 801 803 806 808 810 812 814 815 817 819 820 821 821 822 823 823 824 824 825 825 825 825 825 825 825 825 825 825 825 824 824 823 822 822 820 818 817 816 814 811 809 807 806 806 805 804 803 801 800 799 797 796 794 793 792 790 789 788 787 785 784 783 782
771 774 776 778 781 783 786 789 791 794 796 799 801 804 806 808 810 811 813 815 817 818 819 820 821 821 822 822 823 823 823 823 823 823 823 824 824 824 824 824 824 823 822 821 821 819 817 815 815 813 811 808 804 803 804 803 802 801 799 798 796 795 794 792 790 789 788 786 785 784 782 781 780 779
769 771 773 776 778 781 784 787 789 791 794 796 799 802 804 806 807 809 811 813 815 816 817 818 819 820 820 821 821 821 821 821 821 822 822 822 823 823 823 823 823 822 821 820 820 818 816 814 813 812 812 809 804 801 801 801 800 799 797 795 793 792 791 789 788 787 785 784 782 781 780 779 778 776
765 768 770 773 776 779 782 785 787 789 792 794 798 801 803 805 806 807 809 811 813 814 815 816 818 818 819 819 819 819 820 820 820 821 821 821 821 822 822 822 822 821 820 819 819 817 815 814 812 811 810 808 805 801 799 798 797 796 794 792 791 789 788 787 785 784 783 781 780 778 777 776 775 774
762 765 767 770 774 777 780 782 785 787 790 793 797 800 802 803 804 806 808 810 811 812 814 815 816 817 817 817 818 818 819 819 819 820 820 820 820 820 821 821 820 819 818 818 818 816 814 812 811 809 808 806 804 802 798 795 793 793 792 790 789 787 786 784 783 781 780 778 777 775 774 773 772 771
759 763 765 768 772 775 777 780 783 786 789 792 796 798 800 801 803 805 807 808 809 810 812 813 814 815 815 816 816 817 818 818 818 818 818 818 819 819 819 819 819 818 817 816 816 815 813 811 809 808 807 805 803 801 798 794 791 789 788 788 787 785 784 782 780 779 777 776 774 772 771 770 768 767
757 760 764 767 770 773 776 779 782 785 788 792 794 796 798 800 802 803 805 806 807 809 810 811 812 813 814 814 815 816 816 816 816 816 816 817 817 817 817 817 817 816 816 815 814 813 811 809 808 806 805 803 802 799 796 793 790 788 786 785 783 782 781 779 778 776 775 773 772 770 768 766 764 763
755 759 762 766 769 772 775 779 782 785 788 791 793 795 797 799 800 802 803 804 805 807 808 809 810 811 812 812 813 814 814 815 814 814 814 815 815 815 815 815 815 815 814 813 812 811 809 808 806 805 803 801 800 797 795 792 789 786 785 783 780 779 778 777 776 774 772 771 769 767 766 764 762 760
752 757 761 764 768 771 774 777 781 784 787 790 792 794 796 797 798 800 800 802 803 804 806 807 808 809 810 810 811 812 812 812 812 812 812 812 813 814 814 813 813 813 813 812 811 809 808 806 804 802 800 799 797 795 793 790 787 785 783 781 779 777 775 774 773 771 770 768 766 764 762 760 759 756
748 754 759 763 766 770 773 776 780 783 786 788 790 792 794 795 796 798 799 800 802 802 803 805 805 807 808 808 809 810 810 810 810 810 810 810 811 812 812 812 812 811 811 811 809 808 806 804 802 800 798 797 795 793 791 789 786 783 780 779 777 775 773 771 770 768 766 765 763 761 759 756 754 752
744 751 756 760 764 768 771 775 779 782 785 787 788 790 792 793 795 796 797 799 800 800 801 802 803 804 806 806 807 808 807 807 808 808 808 809 810 810 811 811 810 810 809 808 807 806 804 802 801 799 796 795 792 790 789 786 783 781 778 776 775 773 771 769 767 765 763 761 759 757 755 752 750 747
740 748 753 757 761 765 769 773 777 780 783 785 786 788 789 791 793 794 795 796 797 798 799 800 801 802 803 804 805 805 805 805 805 806 806 807 808 809 810 810 809 809 807 806 805 804 802 800 799 797 795 793 791 788 786 783 780 778 776 774 772 770 768 767 765 762 760 758 756 753 750 747 745 742
737 745 750 755 758 762 767 771 775 778 780 782 784 785 787 789 791 792 794 794 795 796 797 798 799 800 801 802 802 802 803 803 803 804 805 805 806 808 808 808 808 807 806 804 803 801 799 797 796 794 792 790 788 786 784 781 778 776 774 773 771 769 766 764 762 760 758 755 753 750 746 742 739 736
734 741 747 752 757 760 764 768 772 775 777 779 781 783 785 787 789 790 791 792 793 794 795 796 797 798 798 799 800 800 801 801 801 802 803 804 805 806 807 807 807 806 804 803 801 799 797 795 792 790 788 786 784 782 781 779 777 774 772 770 769 767 765 762 760 758 755 752 750 747 743 738 733 731
732 737 743 749 754 757 761 766 769 772 774 776 779 781 783 785 787 788 789 790 791 792 793 793 794 795 796 797 797 798 798 799 799 800 801 802 804 805 806 806 805 804 803 801 799 797 795 793 790 788 786 784 781 779 777 777 776 774 771 768 766 765 763 760 758 755 752 750 747 744 740 734 729 726
730 736 741 746 750 754 758 763 767 769 772 774 776 779 782 783 785 786 787 788 789 789 790 791 791 792 793 794 795 796 796 796 797 798 799 801 802 803 804 804 803 802 801 799 797 795 793 791 789 787 785 783 781 777 774 773 773 773 771 768 765 763 761 758 755 752 750 747 744 741 737 731 725 721
730 736 740 743 747 751 755 760 764 767 769 772 775 777 780 781 782 783 784 785 786 786 787 788 789 790 792 793 794 794 794 794 795 796 797 799 801 802 803 802 802 801 799 797 795 793 791 789 787 785 784 782 780 777 773 770 770 770 769 767 764 761 759 757 754 751 747 744 740 737 733 728 722 718
729 734 737 740 744 748 752 757 762 765 767 770 772 775 777 778 779 780 781 782 783 784 785 786 787 789 790 791 792 792 792 793 793 794 795 797 799 800 801 801 800 799 797 795 793 791 789 787 785 783 782 780 778 776 773 771 768 766 766 765 763 760 758 756 753 750 746 742 737 733 728 724 719 714
728 732 735 738 741 745 750 755 759 762 765 768 770 773 774 775 776 778 779 781 782 783 784 785 786 787 789 790 790 790 790 791 791 792 794 796 798 799 800 799 799 797 796 793 791 789 787 784 782 781 779 777 775 773 772 770 767 764 763 763 762 759 757 754 752 749 744 740 736 731 725 719 714 710
727 730 734 737 739 744 749 753 757 760 763 766 768 770 771 773 775 777 778 779 780 781 783 784 785 786 787 788 788 788 788 789 789 791 793 795 797 798 798 797 797 796 794 792 789 787 785 782 780 779 777 774 773 771 769 767 765 762 761 760 758 757 755 752 750 747 743 739 735 730 724 719 713 707
725 728 732 735 738 743 748 752 755 758 761 763 766 767 769 772 774 775 776 777 779 780 781 783 784 785 785 786 786 786 786 787 788 790 792 793 795 796 796 795 795 794 792 790 787 785 782 780 778 776 774 772 771 770 768 766 764 761 759 757 755 753 752 749 747 745 741 737 734 730 724 719 713 706
724 726 730 733 738 742 747 751 753 756 759 761 763 765 768 770 772 773 774 775 777 778 780 781 783 783 784 784 784 784 785 785 787 788 790 792 793 794 793 793 792 791 790 788 785 783 780 778 776 774 772 771 770 769 767 765 763 760 758 755 752 750 748 745 743 741 738 735 733 729 725 721 715 709
723 725 728 732 737 742 746 749 752 754 757 759 761 764 766 768 770 771 772 773 775 777 779 780 781 781 782 782 783 783 783 784 785 787 789 790 791 791 791 790 790 789 787 785 783 780 778 776 774 773 771 769 768 767 766 764 762 759 757 754 751 748 745 742 739 736 733 731 728 725 722 719 715 709
721 723 727 732 737 740 744 747 750 752 755 757 760 762 765 766 768 769 770 771 773 775 777 778 779 780 780 780 781 781 781 782 784 785 787 788 789 789 789 788 787 787 785 783 781 778 776 774 773 771 769 768 766 765 764 763 761 759 756 754 751 748 745 741 737 734 730 727 724 721 717 713 710 706